GTI8002 PANC-PAFA

Flight info

Callsign GTI8002
Flight time 0h 41m
Altitude 32000
Route CAWIN LIBER5
Aircraft B748/H-SDE3FGHIM1M2RWXY/LB1

Departure

Time 2026-05-05 14:44
Airport Ted Stevens Anchorage International Airport (PANC)

Arrival

Time 2026-05-05 15:25
Airport Fairbanks International Airport (PAFA)
Time Latitude Longitude Altitude Speed Heading
2026-05-05 14:26 61.17923 -149.99508 110 ft 0 kts 70°
2026-05-05 14:26 61.17914 -149.99556 111 ft 0 kts 70°
2026-05-05 14:27 61.17923 -149.99491 110 ft 0 kts 69°
2026-05-05 14:27 61.17928 -149.99462 110 ft 62 kts 69°
2026-05-05 14:27 61.17916 -149.99527 111 ft 0 kts 69°
2026-05-05 14:38 61.17916 -149.99526 111 ft 1 kts 69°
2026-05-05 14:39 61.17926 -149.99474 110 ft 8 kts 70°
2026-05-05 14:39 61.17921 -149.99381 109 ft 4 kts 123°
2026-05-05 14:39 61.17871 -149.99321 107 ft 13 kts 160°
2026-05-05 14:39 61.17767 -149.99237 110 ft 18 kts 150°
2026-05-05 14:40 61.17652 -149.99090 106 ft 21 kts 162°
2026-05-05 14:40 61.17519 -149.98995 108 ft 20 kts 161°
2026-05-05 14:40 61.17390 -149.98895 110 ft 19 kts 159°
2026-05-05 14:40 61.17272 -149.98807 114 ft 15 kts 168°
2026-05-05 14:41 61.17213 -149.98856 115 ft 9 kts 223°
2026-05-05 14:41 61.17164 -149.98977 121 ft 13 kts 230°
2026-05-05 14:41 61.17125 -149.99125 124 ft 11 kts 261°
2026-05-05 14:41 61.17125 -149.99314 127 ft 15 kts 270°
2026-05-05 14:42 61.17125 -149.99540 131 ft 16 kts 270°
2026-05-05 14:42 61.17125 -149.99776 136 ft 15 kts 274°
2026-05-05 14:42 61.17152 -149.99870 137 ft 2 kts 339°
2026-05-05 14:42 61.17188 -149.99889 137 ft 10 kts 345°
2026-05-05 14:43 61.17258 -149.99928 136 ft 12 kts 345°
2026-05-05 14:43 61.17356 -149.99985 135 ft 22 kts 344°
2026-05-05 14:43 61.17612 -150.00129 132 ft 66 kts 345°
2026-05-05 14:43 61.18332 -150.00530 135 ft 144 kts 345°
2026-05-05 14:44 61.19493 -150.01176 199 ft 197 kts 345°
2026-05-05 14:44 61.20781 -150.01897 755 ft 183 kts 345°
2026-05-05 14:44 61.21988 -150.02722 1321 ft 188 kts 329°
2026-05-05 14:44 61.22961 -150.04552 2334 ft 188 kts 316°
2026-05-05 14:45 61.23964 -150.06514 3029 ft 213 kts 316°
2026-05-05 14:45 61.25094 -150.08798 3673 ft 241 kts 315°
2026-05-05 14:45 61.26356 -150.11391 4589 ft 263 kts 315°
2026-05-05 14:45 61.27644 -150.14056 6408 ft 264 kts 315°
2026-05-05 14:46 61.28970 -150.16805 8036 ft 272 kts 315°
2026-05-05 14:46 61.30354 -150.19662 9362 ft 287 kts 315°
2026-05-05 14:46 61.31801 -150.22627 10084 ft 299 kts 315°
2026-05-05 14:46 61.33315 -150.25721 10954 ft 317 kts 315°
2026-05-05 14:47 61.34956 -150.29064 11434 ft 343 kts 315°
2026-05-05 14:47 61.36724 -150.32661 11677 ft 365 kts 315°
2026-05-05 14:47 61.38549 -150.36368 12512 ft 367 kts 315°
2026-05-05 14:47 61.40402 -150.40047 13289 ft 357 kts 320°
2026-05-05 14:48 61.42410 -150.42603 13400 ft 331 kts 341°
2026-05-05 14:48 61.44655 -150.43339 13411 ft 337 kts
2026-05-05 14:48 61.47006 -150.42146 13475 ft 360 kts 25°
2026-05-05 14:48 61.49334 -150.39856 13885 ft 372 kts 28°
2026-05-05 14:49 61.51692 -150.37542 14604 ft 376 kts 25°
2026-05-05 14:49 61.54156 -150.35688 15178 ft 383 kts 19°
2026-05-05 14:49 61.56725 -150.34037 15775 ft 388 kts 20°
2026-05-05 14:49 61.59295 -150.32184 16368 ft 391 kts 22°
2026-05-05 14:50 61.61862 -150.30163 16902 ft 396 kts 23°
2026-05-05 14:50 61.64445 -150.28187 17401 ft 401 kts 21°
2026-05-05 14:50 61.67102 -150.26257 17934 ft 406 kts 21°
2026-05-05 14:50 61.69785 -150.24278 18405 ft 410 kts 21°
2026-05-05 14:51 61.72403 -150.22299 18848 ft 386 kts 22°
2026-05-05 14:51 61.74875 -150.20435 18811 ft 373 kts 22°
2026-05-05 14:51 61.77361 -150.18560 18881 ft 390 kts 21°
2026-05-05 14:51 61.79918 -150.16639 19523 ft 390 kts 21°
2026-05-05 14:52 61.82485 -150.14707 20008 ft 394 kts 21°
2026-05-05 14:52 61.85078 -150.12743 20538 ft 396 kts 22°
2026-05-05 14:52 61.87688 -150.10761 21037 ft 398 kts 21°
2026-05-05 14:52 61.90273 -150.08801 21504 ft 400 kts 21°
2026-05-05 14:53 61.92909 -150.06801 21961 ft 403 kts 21°
2026-05-05 14:53 61.95563 -150.04779 22418 ft 405 kts 21°
2026-05-05 14:53 61.98225 -150.02746 22862 ft 407 kts 21°
2026-05-05 14:53 62.00899 -150.00705 23260 ft 409 kts 21°
2026-05-05 14:54 62.03583 -149.98646 23687 ft 411 kts 21°
2026-05-05 14:54 62.06254 -149.96601 24090 ft 412 kts 21°
2026-05-05 14:54 62.08975 -149.94515 24448 ft 415 kts 21°
2026-05-05 14:54 62.11705 -149.92400 24715 ft 420 kts 21°
2026-05-05 14:55 62.14448 -149.90276 24706 ft 424 kts 21°
2026-05-05 14:55 62.17215 -149.88147 24706 ft 421 kts 21°
2026-05-05 14:55 62.19968 -149.86015 24707 ft 420 kts 21°
2026-05-05 14:55 62.22720 -149.83877 24704 ft 421 kts 22°
2026-05-05 14:56 62.25485 -149.81725 24706 ft 422 kts 22°
2026-05-05 14:56 62.28255 -149.79566 24707 ft 422 kts 22°
2026-05-05 14:56 62.30982 -149.77439 24707 ft 422 kts 22°
2026-05-05 14:56 62.33751 -149.75273 24703 ft 422 kts 22°
2026-05-05 14:57 62.36520 -149.73101 24704 ft 422 kts 22°
2026-05-05 14:57 62.39287 -149.70926 24705 ft 423 kts 22°
2026-05-05 14:57 62.42030 -149.68768 24704 ft 424 kts 22°
2026-05-05 14:57 62.44812 -149.66578 24705 ft 424 kts 22°
2026-05-05 14:58 62.46645 -149.65129 24702 ft 424 kts 22°
2026-05-05 14:58 62.50328 -149.62198 24706 ft 425 kts 22°
2026-05-05 14:58 62.52210 -149.60711 24706 ft 425 kts 22°
2026-05-05 14:58 62.54968 -149.58535 24702 ft 425 kts 22°
2026-05-05 14:59 62.57745 -149.56325 24703 ft 425 kts 22°
2026-05-05 14:59 62.60524 -149.54104 24702 ft 426 kts 22°
2026-05-05 14:59 62.63312 -149.51876 24698 ft 426 kts 22°
2026-05-05 14:59 62.66071 -149.49667 24704 ft 427 kts 22°
2026-05-05 15:00 62.68861 -149.47433 24703 ft 427 kts 22°
2026-05-05 15:00 62.71654 -149.45183 24704 ft 427 kts 22°
2026-05-05 15:00 62.74454 -149.42927 24704 ft 427 kts 22°
2026-05-05 15:00 62.77218 -149.40699 24704 ft 428 kts 22°
2026-05-05 15:01 62.80022 -149.38428 24701 ft 429 kts 23°
2026-05-05 15:01 62.82822 -149.36155 24702 ft 429 kts 22°
2026-05-05 15:01 62.85626 -149.33884 24702 ft 429 kts 22°
2026-05-05 15:01 62.88409 -149.31621 24694 ft 430 kts 23°
2026-05-05 15:02 62.91228 -149.29320 24692 ft 430 kts 23°
2026-05-05 15:02 62.94040 -149.27022 24690 ft 430 kts 23°
2026-05-05 15:02 62.96818 -149.24753 24691 ft 430 kts 23°
2026-05-05 15:02 62.99631 -149.22450 24692 ft 430 kts 23°
2026-05-05 15:03 63.02447 -149.20121 24677 ft 430 kts 23°
2026-05-05 15:03 63.05259 -149.17805 24679 ft 431 kts 23°
2026-05-05 15:03 63.08039 -149.15513 24679 ft 432 kts 23°
2026-05-05 15:03 63.10856 -149.13184 24678 ft 432 kts 23°
2026-05-05 15:04 63.13670 -149.10851 24674 ft 431 kts 23°
2026-05-05 15:04 63.16496 -149.08506 24383 ft 434 kts 23°
2026-05-05 15:04 63.19296 -149.06178 24184 ft 422 kts 23°
2026-05-05 15:04 63.22025 -149.03897 23912 ft 418 kts 24°
2026-05-05 15:05 63.27514 -148.99312 23415 ft 422 kts 22°
2026-05-05 15:05 63.30304 -148.97465 23175 ft 424 kts 18°
2026-05-05 15:05 63.33148 -148.95744 22927 ft 423 kts 17°
2026-05-05 15:06 63.35986 -148.94022 22677 ft 422 kts 17°
2026-05-05 15:06 63.38817 -148.92292 22428 ft 421 kts 18°
2026-05-05 15:06 63.41645 -148.90547 22072 ft 421 kts 18°
2026-05-05 15:06 63.44484 -148.88807 21693 ft 420 kts 18°
2026-05-05 15:07 63.47256 -148.87109 21326 ft 418 kts 18°
2026-05-05 15:07 63.50061 -148.85373 20949 ft 415 kts 18°
2026-05-05 15:07 63.52837 -148.83652 20579 ft 413 kts 18°
2026-05-05 15:07 63.55599 -148.81949 20195 ft 411 kts 18°
2026-05-05 15:08 63.58362 -148.80241 19900 ft 408 kts 18°
2026-05-05 15:08 63.61070 -148.78563 19654 ft 408 kts 18°
2026-05-05 15:08 63.63816 -148.76848 19404 ft 408 kts 18°
2026-05-05 15:08 63.66555 -148.75129 19155 ft 408 kts 18°
2026-05-05 15:09 63.69291 -148.73421 18907 ft 407 kts 18°
2026-05-05 15:09 63.72022 -148.71716 18656 ft 406 kts 18°
2026-05-05 15:09 63.74712 -148.70027 18412 ft 406 kts 18°
2026-05-05 15:09 63.77438 -148.68310 18157 ft 406 kts 18°
2026-05-05 15:10 63.80165 -148.66596 17902 ft 405 kts 19°
2026-05-05 15:10 63.82886 -148.64876 17653 ft 405 kts 18°
2026-05-05 15:10 63.85596 -148.63155 17416 ft 403 kts 19°
2026-05-05 15:10 63.88266 -148.61463 17176 ft 399 kts 18°
2026-05-05 15:11 63.90877 -148.59821 17167 ft 378 kts 19°
2026-05-05 15:11 63.93352 -148.58248 17116 ft 358 kts 19°
2026-05-05 15:11 63.95761 -148.56699 16375 ft 364 kts 19°
2026-05-05 15:11 63.98184 -148.55150 15933 ft 358 kts 19°
2026-05-05 15:12 64.00574 -148.53623 15415 ft 356 kts 19°
2026-05-05 15:12 64.02925 -148.52115 14920 ft 353 kts 18°
2026-05-05 15:12 64.05282 -148.50606 14417 ft 349 kts 18°
2026-05-05 15:12 64.07608 -148.49107 13856 ft 343 kts 19°
2026-05-05 15:13 64.09922 -148.47597 13085 ft 342 kts 19°
2026-05-05 15:13 64.12158 -148.46167 12447 ft 335 kts 17°
2026-05-05 15:13 64.14390 -148.44716 11699 ft 331 kts 17°
2026-05-05 15:13 64.16603 -148.43323 11096 ft 326 kts 18°
2026-05-05 15:14 64.18765 -148.41859 10695 ft 316 kts 18°
2026-05-05 15:14 64.20914 -148.40382 10130 ft 340 kts 14°
2026-05-05 15:14 64.23177 -148.39059 10170 ft 327 kts 18°
2026-05-05 15:14 64.25313 -148.37690 10175 ft 311 kts 17°
2026-05-05 15:15 64.27338 -148.36330 9754 ft 305 kts 17°
2026-05-05 15:15 64.29376 -148.34926 9363 ft 302 kts 17°
2026-05-05 15:15 64.31382 -148.33598 9059 ft 295 kts 16°
2026-05-05 15:15 64.33321 -148.32340 8670 ft 291 kts 16°
2026-05-05 15:16 64.35263 -148.31064 8238 ft 288 kts 16°
2026-05-05 15:16 64.37184 -148.29798 7819 ft 285 kts 16°
2026-05-05 15:16 64.39090 -148.28559 7368 ft 283 kts 15°
2026-05-05 15:16 64.40985 -148.27319 6910 ft 282 kts 17°
2026-05-05 15:17 64.42865 -148.26093 6481 ft 279 kts 15°
2026-05-05 15:17 64.44778 -148.25380 6203 ft 276 kts
2026-05-05 15:17 64.46364 -148.25240 5712 ft 275 kts
2026-05-05 15:17 64.48313 -148.25133 5193 ft 274 kts
2026-05-05 15:18 64.50207 -148.25008 4832 ft 270 kts
2026-05-05 15:18 64.52090 -148.24858 4524 ft 269 kts
2026-05-05 15:18 64.53946 -148.24707 4332 ft 263 kts
2026-05-05 15:18 64.55681 -148.24565 4157 ft 236 kts
2026-05-05 15:19 64.57253 -148.24442 3990 ft 224 kts
2026-05-05 15:19 64.58806 -148.24318 3847 ft 223 kts
2026-05-05 15:19 64.60345 -148.24023 3699 ft 223 kts 16°
2026-05-05 15:19 64.61697 -148.22317 3565 ft 222 kts 36°
2026-05-05 15:20 64.62924 -148.20133 3423 ft 221 kts 38°
2026-05-05 15:20 64.64114 -148.17966 3277 ft 219 kts 38°
2026-05-05 15:20 64.65315 -148.15783 3129 ft 217 kts 37°
2026-05-05 15:20 64.66472 -148.13715 2984 ft 203 kts 38°
2026-05-05 15:21 64.67581 -148.11684 2843 ft 200 kts 38°
2026-05-05 15:21 64.68674 -148.09687 2718 ft 198 kts 38°
2026-05-05 15:21 64.69747 -148.07763 2590 ft 196 kts 38°
2026-05-05 15:21 64.70823 -148.05813 2598 ft 196 kts 38°
2026-05-05 15:22 64.71896 -148.03852 2542 ft 193 kts 39°
2026-05-05 15:22 64.72910 -148.01996 2287 ft 177 kts 38°
2026-05-05 15:22 64.73825 -148.00357 2057 ft 157 kts 39°
2026-05-05 15:22 64.74653 -147.98818 1870 ft 150 kts 39°
2026-05-05 15:23 64.75474 -147.97340 1667 ft 148 kts 38°
2026-05-05 15:23 64.76287 -147.95871 1458 ft 145 kts 39°
2026-05-05 15:23 64.77081 -147.94396 1283 ft 145 kts 40°
2026-05-05 15:23 64.77878 -147.92930 1084 ft 144 kts 38°
2026-05-05 15:24 64.78676 -147.91500 880 ft 144 kts 39°
2026-05-05 15:24 64.79453 -147.90057 684 ft 144 kts 39°
2026-05-05 15:24 64.80247 -147.88618 490 ft 143 kts 38°
2026-05-05 15:24 64.80951 -147.87321 451 ft 98 kts 38°
2026-05-05 15:25 64.81337 -147.86614 452 ft 59 kts 38°
2026-05-05 15:25 64.81610 -147.86111 455 ft 45 kts 38°
2026-05-05 15:25 64.81838 -147.85691 454 ft 24 kts 38°
2026-05-05 15:25 64.81921 -147.85579 455 ft 2 kts 354°
2026-05-05 15:26 64.81929 -147.85593 455 ft 2 kts 327°
2026-05-05 15:26 64.81942 -147.85640 455 ft 8 kts 301°
2026-05-05 15:26 64.81953 -147.85812 454 ft 9 kts 250°
2026-05-05 15:26 64.81911 -147.85895 453 ft 12 kts 213°
2026-05-05 15:27 64.81821 -147.86055 453 ft 19 kts 218°
2026-05-05 15:27 64.81714 -147.86250 453 ft 20 kts 218°
2026-05-05 15:27 64.81607 -147.86449 453 ft 20 kts 219°
2026-05-05 15:27 64.81497 -147.86654 453 ft 20 kts 218°
2026-05-05 15:28 64.81383 -147.86858 453 ft 20 kts 217°
2026-05-05 15:28 64.81271 -147.87063 453 ft 21 kts 218°
2026-05-05 15:28 64.81157 -147.87270 453 ft 21 kts 217°
2026-05-05 15:28 64.81044 -147.87480 452 ft 21 kts 218°
2026-05-05 15:29 64.80926 -147.87697 452 ft 21 kts 218°
2026-05-05 15:29 64.80809 -147.87915 452 ft 22 kts 219°
2026-05-05 15:29 64.80693 -147.88132 452 ft 22 kts 216°
2026-05-05 15:29 64.80572 -147.88350 451 ft 22 kts 218°
2026-05-05 15:30 64.80452 -147.88571 451 ft 19 kts 218°
2026-05-05 15:30 64.80371 -147.88720 451 ft 11 kts 219°
2026-05-05 15:30 64.80356 -147.88795 451 ft 3 kts 274°
2026-05-05 15:30 64.80373 -147.88879 451 ft 7 kts 295°
2026-05-05 15:31 64.80371 -147.88929 451 ft 5 kts 248°
2026-05-05 15:31 64.80322 -147.89047 451 ft 15 kts 219°
2026-05-05 15:31 64.80246 -147.89184 451 ft 12 kts 221°
2026-05-05 15:31 64.80232 -147.89243 451 ft 2 kts 267°
2026-05-05 15:32 64.80241 -147.89282 451 ft 6 kts 303°
2026-05-05 15:32 64.80273 -147.89381 451 ft 4 kts 307°
2026-05-05 15:32 64.80274 -147.89382 451 ft 0 kts 307°
2026-05-05 15:33 64.80738 -147.92830 428 ft 0 kts 294°